Location: Владивосток
(43.1151°N, 131.8856°E)
Time: 11:32:36
(UTC+10:00)

VELOX 1 - Pass Details

Date: 02 July 2022
Orbit: 623 x 639 km, 98.4° (Epoch: 17 August)

Event Time Altitude Azimuth Distance (km) Brightness Sun altitude
Rises 04:58:51 0° 142° (SE) 2,917 ? -6.4°
Reaches altitude 10° 05:01:10 10° 133° (SE) 2,017 ? -6.1°
Maximum altitude 05:05:08 34° 69° (ENE) 1,050 ? -5.5°
Drops below altitude 10° 05:09:09 10° 4° (N) 2,038 ? -5.0°
Sets 05:11:30 0° 356° (N) 2,954 ? -4.6°
